{"data":{"norad_id":59533,"intl_designator":"2024-073Y","name":"STARLINK-31509","alt_names":[],"object_type":"PAYLOAD","status":"ACTIVE","operator":null,"country":"US","launch_date":"2024-04-17","launch_site_code":"AFETR","launch_vehicle":null,"mission":null,"orbit_class":"UNKNOWN","rcs_meters":null,"size_class":null,"mass_kg":null,"dimensions":null,"purposes":["comms"],"wikipedia_slug":null,"has_3d_model":false,"image_url":null,"decayed_at":null,"tle_current":{"epoch":"2026-05-25T00:17:09.092256Z","epoch_age_seconds":70491,"freshness":"FRESH","line1":"1 59533U 24073Y   26145.01191079  .00000553  00000+0  29653-4 0  9998","line2":"2 59533  43.0059 247.3861 0001888 270.5512  89.5124 15.27572463117848","mean_motion":15.27572463,"eccentricity":0.0001888,"inclination_deg":43.0059,"raan_deg":247.3861,"arg_perigee_deg":270.5512,"mean_anomaly_deg":89.5124,"bstar":2.9653e-5,"rev_number":11784,"period_min":94.267213823165,"perigee_km":481.77626842599,"apogee_km":484.36706081775,"semimajor_km":6861.2086646219,"source":"CELESTRAK","updated_at":"2026-05-25T13:38:18.977923Z"}}}